{"data":{"norad_id":68063,"epoch":"2026-09-19T10:50:50.214048Z","epoch_age_seconds":150070,"freshness":"FRESH","line1":"1 68063U 26041Z   26262.45197007  .00016623  00000+0  50198-3 0  9990","line2":"2 68063  53.1563 224.9422 0001218  90.6106 269.5036 15.34401845 31120","mean_motion":15.34401845,"eccentricity":0.0001218,"inclination_deg":53.1563,"raan_deg":224.9422,"arg_perigee_deg":90.6106,"mean_anomaly_deg":269.5036,"bstar":0.00050198,"rev_number":3112,"period_min":93.847645236636,"perigee_km":461.86454281044,"apogee_km":463.53097015712,"semimajor_km":6840.8347564838,"source":"CELESTRAK","updated_at":"2026-09-20T09:00:43.751721Z"}}